sat.trackr.live / text

‹ back to catalog

STARLINK-37370

NORAD 68806 · 2026-089E

PAYLOAD ACTIVE UNKNOWN

§ Identity

Operator
Country
US
Launch date
2026-04-23
Launch site
AFWTR
Launch vehicle
Mass (kg)
RCS (m²)

Purposes: comms

External: N2YO · Heavens-Above · Gunter

§ Orbital elements

Epoch: 2026-05-25T02:51:49.146048Z

Period
91.42 min
Inclination
97.2845°
Eccentricity
0.0002030
Mean motion
15.75181799 rev/d
Perigee alt
342.7 km
Apogee alt
345.5 km
Semi-major
6,722.3 km
B*
1.1946e-3
RAAN
351.7552°
Arg perigee
57.2803°
Mean anomaly
302.8658°
Rev number
506

§ Raw data

STARLINK-373701 68806U 26089E   26145.11931882  .00181833  00000+0  11946-2 0  99902 68806  97.2845 351.7552 0002030  57.2803 302.8658 15.75181799  5069

JSON: /api/v1/satellites/68806 · /tle

For live sub-satellite position, see the globe view (requires WebGL).

§ Visibility from observer

Set your observer location to see the next 7 days of passes ≥ 10°. The values pass through the URL so the page stays shareable.

No JS? Fill the form by hand. The geolocation button needs JavaScript.